This demonstration page uses our WeatherBlox Daily Observations layout. Learn more.

Left ArrowRight Arrow

41.86663, -103.66717

Hourly Observations for August 17, 2022

Temp ( °F °C ) Dew Point ( °F °C ) Humidity (%) Winds ( mph kmh ) Pressure ( in mb ) Visibility ( mi km ) Precip ( " mm )
12:53 am 00:53 Clear 62 16.7 58 14.4 86 86 ESE 10 17 30.09 1019 10 16 0.00 0.00
1:53 am 01:53 Clear with Mist and Fog 60 15.6 57 13.9 90 90 E 9 15 30.09 1019 6 10 0.00 0.00
2:11 am 02:11 Mostly Clear with Mist and Fog 60 15.6 57 13.9 90 90 E 9 15 30.09 1019 6 10 0.00 0.00
2:26 am 02:26 Mostly Cloudy with Mist and Fog 60 15.6 57 13.9 90 90 E 9 15 30.09 1019 5 8 0.00 0.00
2:53 am 02:53 Partly Cloudy with Mist and Fog 59 15 57 13.9 93 93 E 9 15 30.10 1019 5 8 0.00 0.00
3:53 am 03:53 Clear with Mist and Fog 59 15 57 13.9 93 93 ESE 7 11 30.09 1019 4 6 0.00 0.00
4:42 am 04:42 Partly Cloudy with Mist and Fog 58 14.4 56 13.3 93 93 ESE 6 9 30.12 1020 4 6 0.00 0.00
4:53 am 04:53 Mostly Cloudy with Mist and Fog 59 15 57 13.9 93 93 ESE 3 6 30.10 1019 4 6 0.00 0.00
5:53 am 05:53 Cloudy with Mist and Fog 59 15 57 13.9 93 93 SSE 6 9 30.10 1019 5 8 0.00 0.00
6:22 am 06:22 Cloudy with Mist and Fog 60 15.6 57 13.9 90 90 S 3 6 30.11 1020 5 8 0.00 0.00
6:53 am 06:53 Cloudy with Mist and Fog 61 16.1 58 14.4 90 90 S 6 9 30.12 1020 4 6 0.00 0.00
7:53 am 07:53 Cloudy with Mist and Fog 62 16.7 58 14.4 86 86 ESE 6 9 30.14 1021 4 6 0.00 0.00
8:53 am 08:53 Cloudy with Haze 65 18.3 59 15 81 81 SSE 6 9 30.14 1021 6 10 0.00 0.00
9:53 am 09:53 Cloudy 68 20 60 15.6 76 76 E 8 13 30.13 1020 7 11 0.00 0.00
10:14 am 10:14 Partly Cloudy 71 21.7 60 15.6 68 68 VRB 7 11 30.03 1017 8 13 0.00 0.00
10:53 am 10:53 Sunny 74 23.3 61 16.1 64 64 SE 7 11 30.11 1020 10 16 0.00 0.00
11:53 am 11:53 Sunny 79 26.1 61 16.1 54 54 SE 7 11 30.09 1019 10 16 0.00 0.00
12:53 pm 12:53 Sunny 84 28.9 59 15 43 43 ENE 7 11 30.06 1018 10 16 0.00 0.00
1:53 pm 13:53 Sunny 85 29.4 48 8.9 28 28 E 7 11 30.05 1018 10 16 0.00 0.00
2:53 pm 14:53 Sunny 88 31.1 43 6.1 21 21 E 7 11 30.03 1017 10 16 0.00 0.00
3:53 pm 15:53 Sunny 88 31.1 48 8.9 25 25 E 8 13 30.01 1016 10 16 0.00 0.00
4:53 pm 16:53 Sunny 88 31.1 47 8.3 24 24 SSE 8 13 29.99 1016 10 16 0.00 0.00
5:53 pm 17:53 Sunny 88 31.1 46 7.8 23 23 SE 8 13 29.98 1015 10 16 0.00 0.00
6:53 pm 18:53 Sunny 83 28.3 51 10.6 33 33 E 7 11 29.99 1016 10 16 0.00 0.00
7:53 pm 19:53 Clear 75 23.9 54 12.2 48 48 ESE 8 13 30.00 1016 10 16 0.00 0.00
8:53 pm 20:53 Clear 74 23.3 50 10 43 43 ENE 17 28 30.02 1017 10 16 0.00 0.00
9:36 pm 21:36 Partly Cloudy 74 23.3 50 10 43 43 ENE 24 39 29.95 1014 10 16 0.00 0.00
9:53 pm 21:53 Mostly Clear 75 23.9 50 10 41 41 E 17 28 30.08 1019 10 16 0.00 0.00
10:53 pm 22:53 Clear 70 21.1 53 11.7 55 55 ESE 12 19 30.05 1018 10 16 0.00 0.00
11:53 pm 23:53 Clear 66 18.9 56 13.3 70 70 ESE 7 11 30.04 1017 10 16 0.00 0.00

Powered by AerisWeather